Weather History for Sheridan, WY

Change the Weather History Date:

Wednesday, May 8, 2013

  Actual Average Record
Temperature  
Mean Temperature 56 °F 50 °F  
Max Temperature 71 °F 64 °F 89 °F (1934)
Min Temperature 41 °F 36 °F 19 °F (2010)
Degree Days  
Heating Degree Days 9 15  
Month to date heating degree days 137 128  
Since 1 July heating degree days 7229 7229  
Cooling Degree Days 0 0  
Month to date cooling degree days 0 0  
Year to date cooling degree days 0 0  
Growing Degree Days 8 (Base 50)    
Moisture  
Dew Point 38 °F    
Average Humidity 54    
Maximum Humidity 76    
Minimum Humidity 31    
Precipitation  
Precipitation 0.00 in 0.08 in 1.37 in (1995)
Month to date precipitation 0.15 0.60  
Year to date precipitation 4.44 4.28  
Sea Level Pressure  
Sea Level Pressure 30.04 in    
Wind  
Wind Speed 9 mph (NW)    
Max Wind Speed 25 mph    
Max Gust Speed 31 mph    
Visibility 10 miles    
Events      
T = Trace of Precipitation, MM = Missing Value Source: NWS Daily Summary

Daily Weather History Graph

Daily Weather History Graph

Search for Another Location

Airport:

Trip Planner

Search our weather history database for the weather conditions in past years. The results will help you decide how hot, cold, wet, or windy it might be!

Date:

Astronomy

May. 08, 2013 Rise Set
Actual Time 5:47 AM MDT 8:21 PM MDT
Civil Twilight 5:14 AM MDT 8:55 PM MDT
Nautical Twilight 4:33 AM MDT 9:36 PM MDT
Astronomical Twilight 3:45 AM MDT 10:24 PM MDT
Moon 5:00 AM MDT (5/8) 7:20 PM MDT (5/8)
Length of Visible Light 15h 40m
Length of Day
14h 34m
Waning Crescent, 2% of the Moon is Illuminated
May 8
Waning Crescent
May 9
New
May 17
First Quarter
May 24
Full
May 31
Last Quarter

Hourly Weather History & Observations

Time (MDT) Temp. Windchill Dew Point Humidity Pressure Visibility Wind Dir Wind Speed Gust Speed Precip Events Conditions
12:53 AM 53.1 °F - 36.0 °F 52% 29.89 in 10.0 mi Calm Calm - N/A   Mostly Cloudy
1:53 AM 52.0 °F - 35.1 °F 53% 29.90 in 10.0 mi Calm Calm - N/A   Overcast
2:53 AM 48.9 °F - 35.1 °F 59% 29.91 in 10.0 mi Calm Calm - N/A   Mostly Cloudy
3:53 AM 42.1 °F 37.1 °F 34.0 °F 73% 29.94 in 10.0 mi North 8.1 mph - N/A   Clear
4:53 AM 54.0 °F - 32.0 °F 43% 29.93 in 10.0 mi WNW 23.0 mph 31.1 mph N/A   Scattered Clouds
5:53 AM 51.1 °F - 35.1 °F 54% 29.96 in 10.0 mi WNW 17.3 mph 27.6 mph N/A   Mostly Cloudy
6:53 AM 48.9 °F - 37.9 °F 66% 30.01 in 10.0 mi WNW 16.1 mph - N/A   Mostly Cloudy
7:53 AM 51.1 °F - 39.0 °F 63% 30.06 in 10.0 mi WNW 21.9 mph 28.8 mph N/A   Scattered Clouds
8:53 AM 52.0 °F - 39.0 °F 61% 30.09 in 10.0 mi WNW 23.0 mph 28.8 mph N/A   Mostly Cloudy
9:53 AM 55.9 °F - 39.9 °F 55% 30.08 in 10.0 mi NW 19.6 mph - N/A   Clear
10:53 AM 59.0 °F - 39.9 °F 49% 30.08 in 10.0 mi NW 19.6 mph - N/A   Clear
11:53 AM 62.1 °F - 39.0 °F 43% 30.09 in 10.0 mi NNW 9.2 mph - N/A   Clear
12:53 PM 66.0 °F - 39.0 °F 37% 30.06 in 10.0 mi NNW 8.1 mph - N/A   Mostly Cloudy
1:53 PM 68.0 °F - 39.9 °F 36% 30.06 in 10.0 mi North 10.4 mph - N/A   Clear
2:53 PM 69.1 °F - 37.9 °F 32% 30.06 in 10.0 mi NW 9.2 mph - N/A   Clear
3:53 PM 69.1 °F - 37.9 °F 32% 30.06 in 10.0 mi Variable 4.6 mph 16.1 mph N/A   Partly Cloudy
4:53 PM 66.0 °F - 37.0 °F 34% 30.04 in 10.0 mi North 6.9 mph - N/A   Mostly Cloudy
5:53 PM 66.0 °F - 37.9 °F 36% 30.04 in 10.0 mi NE 5.8 mph - N/A   Overcast
6:53 PM 64.9 °F - 37.0 °F 36% 30.05 in 10.0 mi NE 4.6 mph - N/A   Mostly Cloudy
7:53 PM 64.9 °F - 37.0 °F 36% 30.06 in 10.0 mi Calm Calm - N/A   Overcast
8:53 PM 55.0 °F - 41.0 °F 59% 30.09 in 10.0 mi Calm Calm - N/A   Scattered Clouds
9:53 PM 48.9 °F - 39.9 °F 71% 30.11 in 10.0 mi SSW 4.6 mph - N/A   Clear
10:53 PM 46.0 °F - 39.0 °F 76% 30.12 in 10.0 mi Calm Calm - N/A   Clear
11:53 PM 46.0 °F 44.8 °F 37.9 °F 73% 30.11 in 10.0 mi WSW 3.5 mph - N/A   Clear